TimeEDT,TemperatureF,Dew PointF,Humidity,Sea Level PressureIn,VisibilityMPH,Wind Direction,Wind SpeedMPH,Gust SpeedMPH,PrecipitationIn,Events,Conditions,WindDirDegrees,DateUTC
12:51 AM,39.0,37.0,93,30.08,10.0,SSE,4.6,-,N/A,,Clear,150,2013-05-27 04:51:00
1:51 AM,39.9,36.0,86,30.09,10.0,Calm,Calm,-,N/A,,Clear,0,2013-05-27 05:51:00
2:51 AM,36.0,36.0,100,30.09,10.0,Calm,Calm,-,N/A,,Clear,0,2013-05-27 06:51:00
3:51 AM,34.0,34.0,100,30.09,10.0,Calm,Calm,-,N/A,,Clear,0,2013-05-27 07:51:00
4:51 AM,33.1,32.0,96,30.11,10.0,Calm,Calm,-,N/A,,Clear,0,2013-05-27 08:51:00
5:51 AM,33.1,32.0,96,30.12,10.0,Calm,Calm,-,N/A,,Partly Cloudy,0,2013-05-27 09:51:00
6:51 AM,41.0,37.9,89,30.13,10.0,Calm,Calm,-,N/A,,Scattered Clouds,0,2013-05-27 10:51:00
7:51 AM,48.0,39.9,74,30.12,10.0,Calm,Calm,-,N/A,,Clear,0,2013-05-27 11:51:00
8:51 AM,54.0,39.9,59,30.13,10.0,Variable,3.5,-,N/A,,Clear,0,2013-05-27 12:51:00
9:51 AM,60.1,37.0,42,30.12,10.0,West,11.5,19.6,N/A,,Clear,280,2013-05-27 13:51:00
10:51 AM,62.1,34.0,35,30.12,10.0,West,15.0,23.0,N/A,,Clear,280,2013-05-27 14:51:00
11:51 AM,64.9,30.9,28,30.11,10.0,NNW,17.3,26.5,N/A,,Clear,340,2013-05-27 15:51:00
12:51 PM,66.0,30.0,26,30.10,10.0,West,17.3,26.5,N/A,,Clear,280,2013-05-27 16:51:00
1:51 PM,66.9,30.9,26,30.09,10.0,NNW,8.1,21.9,N/A,,Clear,330,2013-05-27 17:51:00
2:51 PM,68.0,30.0,24,30.08,10.0,NW,12.7,21.9,N/A,,Clear,310,2013-05-27 18:51:00
3:51 PM,70.0,30.9,24,30.08,10.0,NW,11.5,18.4,N/A,,Clear,310,2013-05-27 19:51:00
4:51 PM,69.1,30.9,24,30.08,10.0,WNW,16.1,19.6,N/A,,Clear,290,2013-05-27 20:51:00
5:51 PM,68.0,30.0,24,30.09,10.0,NW,11.5,-,N/A,,Clear,310,2013-05-27 21:51:00
6:51 PM,68.0,30.0,24,30.10,10.0,NW,8.1,-,N/A,,Clear,320,2013-05-27 22:51:00
7:51 PM,63.0,32.0,31,30.11,10.0,North,3.5,-,N/A,,Clear,350,2013-05-27 23:51:00
8:51 PM,55.0,35.1,47,30.13,10.0,Calm,Calm,-,N/A,,Clear,0,2013-05-28 00:51:00
9:51 PM,51.1,37.9,61,30.15,10.0,Calm,Calm,-,N/A,,Clear,0,2013-05-28 01:51:00
10:51 PM,44.1,41.0,89,30.18,10.0,Calm,Calm,-,N/A,,Clear,0,2013-05-28 02:51:00
11:51 PM,42.1,39.9,92,30.19,10.0,ENE,3.5,-,N/A,,Clear,60,2013-05-28 03:51:00